[[{"header":{"parameterUnit":"m.s-1","parameterCategory":1,"la1":30.2991,"la2":30.254,"lo1":-89.0895,"lo2":-89.0444,"dy":0.0017,"dx":0.0017,"nx":28,"ny":28,"refTime":"2023-09-23T03:00:00:Z","depth":0,"parameterNumber":2,"parameterNumberName":"U-component_of_WINDS"},"data":[0,0,0,0,0,0,0,0,0,0,0,0,0,0,0,0,0,0,0,0,0,0,0,0,0,0,0,0,0,0,0,0,0,0,0,0,0,0,0,0,0,0,0,0,0,0,0,0,0,0,0,0,0,0,0,0,0,0,0.7878,0.7878,0,0.7803,0.7803,0.7802,0.7741,0.774,0.774,0.7739,0.7663,0.7661,0.766,0,0,0,0,0,0,0,0,0,0,0,0,0,0.7967,0.7966,0.7878,0.7877,0.7877,0.7804,0.7803,0.7802,0.7741,0.774,0.774,0.7739,0.7663,0.7662,0.766,0,0,0,0,0,0,0,0,0,0,0,0,0,0.7914,0.7965,0.7879,0.7838,0.7833,0.7804,0.7803,0.7801,0.7741,0.774,0.7739,0.7738,0.7664,0.7662,0.766,0.7665,0,0,0.7653,0.7652,0,0,0,0,0,0,0,0,0.7917,0.7911,0.7844,0.784,0.7835,0.7781,0.7806,0.7756,0.7741,0.7776,0.7739,0.7738,0.7703,0.7697,0.7685,0.7661,0.7658,0.7653,0.7651,0.765,0.765,0,0,0,0,0,0,0,0.7921,0.7914,0.7849,0.7844,0.7838,0.7822,0.7814,0.7796,0.7746,0.7773,0.7768,0.776,0.77,0.7688,0.7683,0.7657,0.7653,0.7651,0.7649,0.7649,0.763,0.7631,0,0,0,0,0,0,0.7931,0.7917,0.7851,0.7846,0.7875,0.7821,0.7812,0.7799,0.7746,0.7737,0.7761,0.7758,0.7692,0.7686,0.768,0.768,0.765,0.7648,0.7647,0.7629,0.763,0.7631,0,0,0,0,0,0,0.7933,0.7926,0.7854,0.7881,0.787,0.7821,0.7807,0.7798,0.7786,0.7737,0.7727,0.7758,0.7691,0.7683,0.7668,0.7677,0.7647,0.7645,0.7628,0.763,0.7631,0.7683,0,0,0,0,0,0,0.7936,0.7927,0.7929,0.7881,0.7869,0.7844,0.7808,0.7797,0.7782,0.7777,0.7731,0.7723,0.7689,0.7672,0.7666,0.7673,0.7644,0.7627,0.7629,0.763,0.768,0.7685,0.769,0,0,0,0,0,0.794,0.7948,0.793,0.7922,0.7871,0.7845,0.7838,0.78,0.7783,0.7784,0.7752,0.7724,0.7677,0.7671,0.7664,0.7671,0.7627,0.7628,0.763,0.7678,0.7684,0.769,0,0,0,0,0,0,0.7999,0.7941,0.792,0.7913,0.7884,0.7835,0.7835,0.7809,0.7784,0.778,0.7734,0.7724,0.7713,0.7691,0.7685,0.7671,0.7648,0.7649,0.7686,0.7692,0.7698,0.7703,0.7642,0,0,0,0,0,0.8011,0.7995,0.7945,0.7944,0.793,0.7885,0.7873,0.7845,0.7814,0.7801,0.7769,0.7739,0.7717,0.7704,0.7681,0.7677,0.7664,0.7678,0.7683,0.7687,0.7688,0.768,0.7685,0.7637,0.7637,0.7637,0,0,0.8036,0.8002,0.7995,0.7954,0.7929,0.7912,0.7876,0.7861,0.7847,0.7799,0.7782,0.7757,0.7721,0.771,0.7704,0.7691,0.7698,0.769,0.7693,0.7691,0.7683,0.7687,0.7691,0.7638,0.7638,0.7638,0,0,0.8072,0.8047,0.8041,0.8016,0.7977,0.7947,0.7946,0.7899,0.7881,0.7863,0.7825,0.7809,0.7773,0.7748,0.773,0.7755,0.7727,0.7749,0.7775,0.7769,0.7773,0.7776,0.7782,0.7785,0.775,0.775,0.775,0,0.8108,0.8082,0.8041,0.8027,0.801,0.7964,0.7957,0.7935,0.7892,0.788,0.7866,0.7818,0.779,0.7772,0.7777,0.7766,0.7761,0.7753,0.7776,0.7778,0.778,0.7786,0.7789,0.7753,0.7753,0.7752,0.7752,0,0.8127,0.811,0.811,0.8067,0.805,0.804,0.7996,0.7983,0.7956,0.7927,0.7908,0.7874,0.7842,0.7836,0.7811,0.7813,0.7805,0.7784,0.776,0.7788,0.7792,0.7794,0.7757,0.7756,0.7755,0.7754,0,0,0.8199,0.8133,0.8133,0.8112,0.8066,0.8051,0.8038,0.8006,0.7995,0.7966,0.7952,0.7922,0.7901,0.7881,0.7853,0.7847,0.7865,0.7826,0.7824,0.7833,0.7862,0.7877,0.788,0.7847,0.7847,0.7848,0.7864,0,0.8227,0.82,0.8162,0.8148,0.813,0.8086,0.8074,0.8043,0.8015,0.7995,0.7964,0.7942,0.7918,0.7905,0.7898,0.7865,0.787,0.7863,0.7832,0.7832,0.7841,0.7883,0.7899,0.7917,0.7866,0.7866,0.7867,0,0.8255,0.8227,0.8212,0.8164,0.8154,0.8145,0.8111,0.8093,0.8057,0.8036,0.8013,0.7982,0.7964,0.7943,0.7916,0.7912,0.7897,0.7879,0.7879,0.7873,0.785,0.7876,0.7922,0.7924,0.7869,0.7869,0.7869,0,0.8306,0.8265,0.8249,0.8233,0.8178,0.8171,0.8148,0.8111,0.8093,0.8064,0.8051,0.8021,0.8004,0.798,0.794,0.7929,0.7917,0.7894,0.7899,0.79,0.7897,0.7898,0.7939,0.7891,0.7891,0.7891,0.7891,0,0.834,0.8331,0.8271,0.8261,0.8249,0.8205,0.8194,0.8167,0.8134,0.8117,0.8077,0.8062,0.8012,0.799,0.7959,0.7941,0.7934,0.7916,0.7907,0.7918,0.792,0.7907,0.7904,0.7892,0.7891,0.7891,0.7891,0,0.8395,0.8354,0.8334,0.8282,0.8269,0.8262,0.8218,0.8206,0.8175,0.8154,0.8146,0.8098,0.807,0.8029,0.7989,0.7968,0.7954,0.7941,0.7966,0.796,0.7967,0.7966,0.7999,0.8,0.7954,0.7955,0.7955,0,0.8418,0.841,0.8357,0.8342,0.832,0.8298,0.8279,0.8235,0.8217,0.8173,0.8166,0.8135,0.8108,0.8066,0.8027,0.7995,0.798,0.7994,0.7975,0.7986,0.7978,0.7978,0.7976,0.7998,0.7999,0.8,0.8,0,0.8462,0.8442,0.8417,0.8384,0.8363,0.8335,0.8305,0.8295,0.8244,0.8226,0.8197,0.8176,0.8134,0.8103,0.8066,0.8041,0.8011,0.8006,0.8005,0.8016,0.8029,0.8019,0.7976,0.8006,0.8005,0.8005,0.8004,0.8004,0.85,0.849,0.845,0.8423,0.8395,0.8368,0.8353,0.832,0.8295,0.8257,0.8232,0.8204,0.8165,0.8112,0.8088,0.8065,0.8052,0.8052,0.8051,0.8051,0.8054,0.8034,0.8058,0.8058,0.8058,0.8058,0.8057,0,0.854,0.8512,0.8487,0.8446,0.8424,0.8398,0.8363,0.8346,0.8322,0.8288,0.8262,0.8227,0.8196,0.8154,0.812,0.8109,0.8094,0.8101,0.8101,0.8095,0.8068,0.8071,0.8113,0.8113,0.8113,0.8113,0.8113,0.8113,0.8558,0.8539,0.8514,0.8479,0.8451,0.8423,0.8405,0.8378,0.8351,0.8314,0.8288,0.8261,0.8223,0.8185,0.8155,0.8143,0.8132,0.8142,0.8126,0.8102,0.8097,0.8092,0.8095,0.8141,0.8141,0.8154,0.8154,0.8155]},{"header":{"parameterUnit":"m.s-1","parameterCategory":1,"la1":30.2991,"la2":30.254,"lo1":-89.0895,"lo2":-89.0444,"dy":0.0017,"dx":0.0017,"nx":28,"ny":28,"refTime":"2023-09-23T03:00:00:Z","depth":0,"parameterNumber":3,"parameterNumberName":"V-component_of_WINDS"},"data":[0,0,0,0,0,0,0,0,0,0,0,0,0,0,0,0,0,0,0,0,0,0,0,0,0,0,0,0,0,0,0,0,0,0,0,0,0,0,0,0,0,0,0,0,0,0,0,0,0,0,0,0,0,0,0,0,0,0,3.4191,3.4191,0,3.4164,3.4163,3.4163,3.4086,3.4084,3.4082,3.4081,3.4053,3.4053,3.4054,0,0,0,0,0,0,0,0,0,0,0,0,0,3.4178,3.4178,3.4191,3.4191,3.4191,3.4164,3.4163,3.4163,3.4086,3.4084,3.4082,3.408,3.4052,3.4053,3.4054,0,0,0,0,0,0,0,0,0,0,0,0,0,3.417,3.4179,3.4192,3.4149,3.4145,3.4164,3.4163,3.4163,3.4086,3.4084,3.4081,3.4079,3.4052,3.4053,3.4054,3.4112,0,0,3.4058,3.4059,0,0,0,0,0,0,0,0,3.4171,3.4171,3.4156,3.4152,3.4148,3.4126,3.4148,3.4146,3.4087,3.4109,3.4081,3.4078,3.4079,3.4078,3.4078,3.4111,3.4109,3.4058,3.4059,3.4059,3.406,0,0,0,0,0,0,0,3.4171,3.4172,3.418,3.4156,3.4151,3.4131,3.4128,3.4147,3.4108,3.4107,3.4101,3.4099,3.4076,3.4077,3.4077,3.4109,3.4058,3.4059,3.406,3.406,3.4185,3.4187,0,0,0,0,0,0,3.4178,3.4172,3.4181,3.418,3.4153,3.4134,3.4129,3.4135,3.4108,3.4101,3.4101,3.4095,3.4076,3.4075,3.4075,3.4139,3.4059,3.406,3.4061,3.4182,3.4185,3.4188,0,0,0,0,0,0,3.4178,3.4179,3.4182,3.4174,3.4173,3.4137,3.4144,3.4136,3.4137,3.4103,3.4096,3.4109,3.4074,3.4074,3.4103,3.4137,3.4061,3.4062,3.4179,3.4183,3.4187,3.4267,0,0,0,0,0,0,3.4178,3.418,3.4202,3.4176,3.4174,3.4211,3.4146,3.4137,3.4139,3.4131,3.4109,3.4103,3.4072,3.4101,3.4104,3.4137,3.4063,3.4176,3.4181,3.4185,3.4261,3.4273,3.4284,0,0,0,0,0,3.4178,3.4226,3.4203,3.4205,3.42,3.4213,3.4212,3.4175,3.4142,3.4163,3.4141,3.4104,3.4133,3.4105,3.4107,3.4141,3.4173,3.4179,3.4185,3.4256,3.4271,3.4283,0,0,0,0,0,0,3.4257,3.4222,3.4196,3.4237,3.4229,3.42,3.4225,3.4193,3.4193,3.4186,3.4141,3.4137,3.4171,3.416,3.4129,3.4194,3.4147,3.4154,3.42,3.4214,3.4225,3.4226,3.4064,0,0,0,0,0,3.428,3.4293,3.4261,3.4301,3.4298,3.4263,3.4267,3.4239,3.4228,3.4224,3.4205,3.4196,3.4202,3.4208,3.4213,3.426,3.4253,3.4284,3.4295,3.4305,3.431,3.4332,3.4345,3.4207,3.4207,3.4207,0,0,3.4326,3.4308,3.4319,3.4316,3.4306,3.432,3.426,3.4278,3.4287,3.4227,3.4252,3.4238,3.4225,3.4262,3.4278,3.4253,3.4347,3.4312,3.432,3.432,3.4339,3.4352,3.4364,3.4211,3.421,3.421,0,0,3.4417,3.4406,3.4436,3.4427,3.4412,3.4389,3.4396,3.4372,3.436,3.4385,3.4339,3.435,3.4364,3.4355,3.4353,3.444,3.4404,3.4443,3.4501,3.4522,3.4533,3.4542,3.4571,3.4582,3.4449,3.4449,3.445,0,3.4476,3.4495,3.4456,3.4476,3.4475,3.4421,3.4451,3.4444,3.4433,3.4433,3.4406,3.442,3.4408,3.4442,3.4463,3.4464,3.4469,3.4444,3.4535,3.4544,3.4552,3.4578,3.459,3.4454,3.4453,3.4453,3.4453,0,3.4567,3.4581,3.4608,3.4596,3.4599,3.4624,3.4588,3.4595,3.4568,3.4547,3.4572,3.4555,3.4555,3.4561,3.4535,3.4591,3.4576,3.4543,3.4494,3.457,3.4594,3.4604,3.4461,3.4459,3.4458,3.4456,0,0,3.4706,3.4672,3.4682,3.4676,3.4656,3.4665,3.4688,3.4687,3.4693,3.4687,3.4703,3.4715,3.4684,3.4681,3.4654,3.4673,3.474,3.4637,3.4636,3.4655,3.4798,3.4821,3.4834,3.4718,3.4719,3.4721,3.4798,0,3.4789,3.4825,3.479,3.4832,3.4843,3.4792,3.4812,3.4801,3.4782,3.4789,3.4768,3.4776,3.4736,3.4733,3.475,3.4729,3.4768,3.4723,3.4731,3.4731,3.4733,3.4847,3.4872,3.4945,3.4808,3.4809,3.481,0,3.4891,3.4888,3.4931,3.4907,3.491,3.4928,3.4923,3.4931,3.4917,3.4902,3.4899,3.4866,3.4885,3.4839,3.4864,3.4834,3.4836,3.4825,3.4827,3.4825,3.4774,3.4844,3.4968,3.4978,3.4825,3.4824,3.4823,0,3.4984,3.4992,3.5018,3.5014,3.4987,3.5,3.499,3.4974,3.4975,3.4971,3.4971,3.497,3.4969,3.4969,3.4936,3.4906,3.4964,3.4916,3.4951,3.4952,3.4963,3.4962,3.5086,3.4969,3.4969,3.4969,3.4968,0,3.5079,3.5107,3.5059,3.5075,3.5104,3.5064,3.5094,3.5078,3.5065,3.5076,3.5033,3.5044,3.5001,3.5008,3.4983,3.5006,3.5006,3.4994,3.4986,3.4996,3.4997,3.4994,3.4987,3.4971,3.4971,3.497,3.497,0,3.5188,3.5157,3.5182,3.5154,3.5147,3.517,3.5145,3.5159,3.5137,3.5152,3.5153,3.5119,3.5125,3.5092,3.5092,3.5075,3.511,3.5095,3.5114,3.5108,3.5143,3.514,3.5267,3.5281,3.5158,3.5159,3.516,0,3.5249,3.5269,3.5243,3.5247,3.5238,3.5246,3.5247,3.5209,3.5211,3.5197,3.5211,3.5213,3.5212,3.5224,3.5199,3.5198,3.5181,3.5226,3.5181,3.5189,3.5179,3.5177,3.5177,3.5235,3.5236,3.5238,3.5239,0,3.536,3.5344,3.5346,3.5343,3.5345,3.5341,3.5334,3.534,3.5298,3.5303,3.5308,3.5308,3.5307,3.5309,3.5303,3.5292,3.5258,3.5253,3.5261,3.527,3.5279,3.5272,3.5137,3.525,3.5249,3.5248,3.5247,3.5247,3.5445,3.5459,3.5443,3.5446,3.5437,3.5431,3.5442,3.5421,3.5424,3.542,3.5398,3.5407,3.5392,3.5381,3.5372,3.5378,3.5356,3.5368,3.537,3.5373,3.5378,3.528,3.5377,3.5377,3.5377,3.5376,3.5376,0,3.5552,3.5538,3.5542,3.5533,3.5536,3.5505,3.5495,3.5499,3.5507,3.5496,3.5496,3.5501,3.5503,3.5478,3.5476,3.5485,3.5469,3.5486,3.5483,3.5481,3.5399,3.5391,3.5498,3.5498,3.5498,3.5498,3.5498,3.5498,3.5607,3.5629,3.5611,3.5627,3.5614,3.5621,3.5618,3.5613,3.5603,3.561,3.5611,3.5595,3.5578,3.5575,3.5574,3.5567,3.5567,3.5588,3.5575,3.5499,3.5487,3.5475,3.5468,3.5589,3.5589,3.5656,3.5657,3.5657]}]]